SDM243 UUEE-UMMS

Flight info

Callsign SDM243
Flight time N/A
Altitude 36000
Route LIDRI3J LIDRI T781 REPNU N858 VEPIS T526 RUHAL RUHAL2H
Aircraft A319/M-SDE3FGHIRWY/LB1

Departure

Time N/A
Airport Sheremetyevo International Airport (UUEE)

Arrival

Time 2026-05-04 15:23
Airport Minsk National Airport (UMMS)
Time Latitude Longitude Altitude Speed Heading
2026-05-04 14:24 55.74163 35.25836 30222 ft 395 kts 266°
2026-05-04 14:25 55.73942 35.20989 30866 ft 394 kts 266°
2026-05-04 14:25 55.73498 35.11372 32186 ft 392 kts 266°
2026-05-04 14:25 55.73275 35.06555 32878 ft 391 kts 266°
2026-05-04 14:26 55.73055 35.01765 33588 ft 389 kts 267°
2026-05-04 14:26 55.72837 34.96978 34249 ft 388 kts 267°
2026-05-04 14:26 55.72618 34.92210 34888 ft 387 kts 267°
2026-05-04 14:26 55.72401 34.87460 35540 ft 387 kts 267°
2026-05-04 14:27 55.72201 34.83119 35831 ft 395 kts 267°
2026-05-04 14:27 55.71975 34.78298 35920 ft 386 kts 267°
2026-05-04 14:27 55.71754 34.73631 35928 ft 374 kts 267°
2026-05-04 14:27 55.71535 34.69070 35933 ft 369 kts 266°
2026-05-04 14:28 55.71044 34.59942 35934 ft 377 kts 262°
2026-05-04 14:28 55.69435 34.50964 35936 ft 387 kts 252°
2026-05-04 14:29 55.65692 34.32832 35932 ft 399 kts 252°
2026-05-04 14:30 55.63768 34.23558 35932 ft 403 kts 252°
2026-05-04 14:31 55.60832 34.09504 35927 ft 409 kts 251°
2026-05-04 14:32 55.56830 33.90567 35930 ft 413 kts 251°
2026-05-04 14:32 55.54807 33.81048 35931 ft 415 kts 251°
2026-05-04 14:33 55.52769 33.71488 35936 ft 417 kts 251°
2026-05-04 14:33 55.50880 33.61836 35931 ft 416 kts 257°
2026-05-04 14:34 55.49471 33.51999 35932 ft 416 kts 257°
2026-05-04 14:34 55.48031 33.42106 35937 ft 416 kts 257°
2026-05-04 14:35 55.46581 33.32220 35929 ft 417 kts 257°
2026-05-04 14:35 55.45129 33.22327 35928 ft 417 kts 257°
2026-05-04 14:36 55.43668 33.12437 35930 ft 417 kts 257°
2026-05-04 14:36 55.42195 33.02547 35928 ft 418 kts 257°
2026-05-04 14:37 55.40708 32.92670 35935 ft 418 kts 257°
2026-05-04 14:37 55.39193 32.82643 35934 ft 436 kts 256°
2026-05-04 14:37 55.38402 32.77406 35931 ft 449 kts 256°
2026-05-04 14:38 55.37589 32.72037 36090 ft 453 kts 257°
2026-05-04 14:38 55.36800 32.66800 36256 ft 432 kts 256°
2026-05-04 14:38 55.36047 32.61874 36254 ft 414 kts 256°
2026-05-04 14:38 55.35310 32.57090 36257 ft 398 kts 256°
2026-05-04 14:39 55.34594 32.52484 36257 ft 383 kts 256°
2026-05-04 14:39 55.33902 32.48056 36256 ft 369 kts 256°
2026-05-04 14:39 55.33234 32.43790 36256 ft 356 kts 256°
2026-05-04 14:40 55.31312 32.31381 36254 ft 352 kts 256°
2026-05-04 14:40 55.30017 32.23086 36255 ft 353 kts 256°
2026-05-04 14:41 55.28704 32.14773 36252 ft 354 kts 256°
2026-05-04 14:42 55.26062 31.98094 36236 ft 356 kts 256°
2026-05-04 14:42 55.24737 31.89791 36249 ft 356 kts 255°
2026-05-04 14:43 55.23404 31.81478 36250 ft 353 kts 255°
2026-05-04 14:43 55.22066 31.73193 36251 ft 353 kts 255°
2026-05-04 14:44 55.20726 31.64930 36252 ft 353 kts 255°
2026-05-04 14:44 55.19381 31.56662 36256 ft 353 kts 255°
2026-05-04 14:45 55.18030 31.48402 36259 ft 353 kts 255°
2026-05-04 14:45 55.16676 31.40142 36234 ft 354 kts 255°
2026-05-04 14:46 55.15312 31.31866 36239 ft 354 kts 255°
2026-05-04 14:46 55.13936 31.23599 36239 ft 354 kts 255°
2026-05-04 14:47 55.12560 31.15389 36241 ft 354 kts 255°
2026-05-04 14:47 55.11171 31.07127 36249 ft 354 kts 255°
2026-05-04 14:48 55.09484 30.99054 36249 ft 356 kts 242°
2026-05-04 14:48 55.08058 30.95505 36249 ft 359 kts 231°
2026-05-04 14:48 55.06380 30.92274 36248 ft 359 kts 230°
2026-05-04 14:49 55.03013 30.85822 36239 ft 360 kts 230°
2026-05-04 14:49 54.99641 30.79373 36222 ft 360 kts 230°
2026-05-04 14:50 54.96248 30.72898 36122 ft 363 kts 230°
2026-05-04 14:50 54.92845 30.66423 36019 ft 366 kts 230°
2026-05-04 14:51 54.89388 30.59865 35807 ft 371 kts 230°
2026-05-04 14:51 54.87635 30.56540 35638 ft 375 kts 230°
2026-05-04 14:51 54.85862 30.53181 35457 ft 379 kts 230°
2026-05-04 14:52 54.84655 30.50899 35339 ft 381 kts 230°
2026-05-04 14:52 54.82851 30.47502 35155 ft 384 kts 230°
2026-05-04 14:52 54.81031 30.44079 34965 ft 388 kts 230°
2026-05-04 14:52 54.79206 30.40649 34636 ft 395 kts 229°
2026-05-04 14:53 54.77330 30.37128 34357 ft 401 kts 229°
2026-05-04 14:53 54.75430 30.33565 34076 ft 404 kts 229°
2026-05-04 14:53 54.73536 30.30016 33791 ft 399 kts 229°
2026-05-04 14:53 54.71661 30.26516 33436 ft 394 kts 229°
2026-05-04 14:54 54.69805 30.23053 33080 ft 390 kts 229°
2026-05-04 14:54 54.67969 30.19635 32726 ft 386 kts 229°
2026-05-04 14:54 54.66144 30.16249 32364 ft 385 kts 229°
2026-05-04 14:54 54.64309 30.12835 31994 ft 391 kts 229°
2026-05-04 14:55 54.62444 30.09365 31624 ft 396 kts 229°
2026-05-04 14:55 54.60568 30.05882 31266 ft 393 kts 229°
2026-05-04 14:55 54.58716 30.02447 30880 ft 389 kts 229°
2026-05-04 14:55 54.56882 29.99055 30512 ft 385 kts 229°
2026-05-04 14:56 54.55058 29.95693 30144 ft 382 kts 229°
2026-05-04 14:56 54.53248 29.92357 29742 ft 380 kts 228°
2026-05-04 14:56 54.51449 29.89049 29326 ft 377 kts 228°
2026-05-04 14:56 54.49657 29.85765 28909 ft 375 kts 228°
2026-05-04 14:57 54.47876 29.82504 28502 ft 373 kts 228°
2026-05-04 14:57 54.46106 29.79259 28089 ft 371 kts 229°
2026-05-04 14:57 54.44342 29.76023 27678 ft 370 kts 229°
2026-05-04 14:57 54.42594 29.72822 27287 ft 362 kts 228°
2026-05-04 14:58 54.40881 29.69700 26897 ft 357 kts 228°
2026-05-04 14:58 54.39187 29.66625 26493 ft 352 kts 228°
2026-05-04 14:58 54.37535 29.63631 26089 ft 348 kts 228°
2026-05-04 14:58 54.35884 29.60634 25689 ft 343 kts 229°
2026-05-04 14:59 54.34263 29.57674 25296 ft 338 kts 229°
2026-05-04 14:59 54.32670 29.54747 24920 ft 334 kts 229°
2026-05-04 14:59 54.29550 29.49019 24206 ft 324 kts 229°
2026-05-04 15:00 54.28025 29.46227 23856 ft 319 kts 229°
2026-05-04 15:00 54.26516 29.43475 23507 ft 315 kts 229°
2026-05-04 15:00 54.25025 29.40761 23095 ft 311 kts 229°
2026-05-04 15:01 54.22031 29.35323 22298 ft 317 kts 229°
2026-05-04 15:01 54.20517 29.32581 21899 ft 317 kts 229°
2026-05-04 15:01 54.19001 29.29842 21507 ft 318 kts 229°
2026-05-04 15:01 54.17481 29.27101 21106 ft 318 kts 229°
2026-05-04 15:02 54.15960 29.24358 20700 ft 319 kts 229°
2026-05-04 15:02 54.14433 29.21605 20274 ft 320 kts 229°
2026-05-04 15:02 54.13083 29.18615 19851 ft 318 kts 241°
2026-05-04 15:02 54.12117 29.15237 19437 ft 317 kts 247°
2026-05-04 15:03 54.11196 29.11813 19037 ft 318 kts 247°
2026-05-04 15:03 54.10281 29.08432 18624 ft 319 kts 247°
2026-05-04 15:03 54.09350 29.05005 18228 ft 319 kts 247°
2026-05-04 15:03 54.08417 29.01574 17758 ft 319 kts 247°
2026-05-04 15:04 54.07482 28.98139 17304 ft 320 kts 247°
2026-05-04 15:04 54.06541 28.94704 16855 ft 320 kts 246°
2026-05-04 15:04 54.05596 28.91265 16421 ft 320 kts 246°
2026-05-04 15:04 54.04651 28.87827 15987 ft 320 kts 246°
2026-05-04 15:05 54.03708 28.84392 15563 ft 321 kts 246°
2026-05-04 15:05 54.02763 28.80954 15141 ft 321 kts 246°
2026-05-04 15:05 54.01819 28.77525 14724 ft 320 kts 246°
2026-05-04 15:05 54.00875 28.74101 14372 ft 318 kts 246°
2026-05-04 15:06 53.99940 28.70706 14027 ft 316 kts 246°
2026-05-04 15:06 53.99014 28.67344 13708 ft 314 kts 246°
2026-05-04 15:06 53.98090 28.63997 13338 ft 311 kts 246°
2026-05-04 15:07 53.96257 28.57392 12611 ft 307 kts 246°
2026-05-04 15:07 53.95347 28.54131 12376 ft 300 kts 246°
2026-05-04 15:07 53.94488 28.51062 12370 ft 282 kts 246°
2026-05-04 15:07 53.93661 28.48105 12361 ft 266 kts 246°
2026-05-04 15:08 53.92856 28.45337 12362 ft 259 kts 242°
2026-05-04 15:08 53.91776 28.42915 12258 ft 257 kts 232°
2026-05-04 15:08 53.90622 28.40658 12109 ft 256 kts 232°
2026-05-04 15:08 53.89454 28.38380 11954 ft 255 kts 232°
2026-05-04 15:09 53.88089 28.36449 11707 ft 265 kts 208°
2026-05-04 15:09 53.86241 28.36084 11424 ft 277 kts 173°
2026-05-04 15:09 53.84475 28.37442 11150 ft 283 kts 149°
2026-05-04 15:10 53.81535 28.41869 10614 ft 282 kts 138°
2026-05-04 15:10 53.80151 28.44220 10351 ft 280 kts 139°
2026-05-04 15:10 53.77356 28.48737 9832 ft 273 kts 141°
2026-05-04 15:11 53.75958 28.50874 9543 ft 270 kts 142°
2026-05-04 15:11 53.74560 28.52959 9363 ft 262 kts 142°
2026-05-04 15:11 53.73247 28.54901 9254 ft 245 kts 143°
2026-05-04 15:11 53.73220 28.54940 9249 ft 245 kts 143°
2026-05-04 15:12 53.72246 28.56286 9024 ft 239 kts 150°
2026-05-04 15:12 53.70733 28.57102 8734 ft 224 kts 183°
2026-05-04 15:12 53.69270 28.56584 8465 ft 212 kts 201°
2026-05-04 15:12 53.67916 28.55811 8209 ft 204 kts 214°
2026-05-04 15:13 53.66931 28.54180 7941 ft 197 kts 234°
2026-05-04 15:13 53.66145 28.52313 7672 ft 195 kts 238°
2026-05-04 15:13 53.65366 28.50417 7277 ft 200 kts 236°
2026-05-04 15:13 53.64545 28.48507 6806 ft 203 kts 235°
2026-05-04 15:14 53.63680 28.46604 6345 ft 205 kts 234°
2026-05-04 15:14 53.63041 28.44480 5913 ft 204 kts 259°
2026-05-04 15:14 53.63224 28.42155 5497 ft 205 kts 291°
2026-05-04 15:14 53.64155 28.40321 5067 ft 209 kts 315°
2026-05-04 15:15 53.65247 28.38726 4609 ft 208 kts 315°
2026-05-04 15:15 53.66326 28.37161 4405 ft 198 kts 315°
2026-05-04 15:15 53.66685 28.36643 4369 ft 193 kts 315°
2026-05-04 15:16 53.67326 28.35754 4302 ft 183 kts 319°
2026-05-04 15:16 53.68349 28.34598 4209 ft 173 kts 321°
2026-05-04 15:16 53.70267 28.32385 4058 ft 162 kts 319°
2026-05-04 15:17 53.71189 28.31316 4000 ft 159 kts 320°
2026-05-04 15:17 53.72946 28.29274 4003 ft 150 kts 319°
2026-05-04 15:17 53.73728 28.28127 4010 ft 150 kts 313°
2026-05-04 15:18 53.74513 28.26963 4005 ft 151 kts 312°
2026-05-04 15:18 53.75306 28.25792 4001 ft 152 kts 312°
2026-05-04 15:18 53.76102 28.24618 4002 ft 152 kts 313°
2026-05-04 15:19 53.77652 28.22348 3997 ft 140 kts 311°
2026-05-04 15:19 53.78371 28.21281 3993 ft 136 kts 310°
2026-05-04 15:19 53.79894 28.19239 3693 ft 144 kts 314°
2026-05-04 15:20 53.80664 28.18171 3534 ft 144 kts 313°
2026-05-04 15:20 53.81388 28.17046 3327 ft 135 kts 309°
2026-05-04 15:20 53.82025 28.15990 3084 ft 129 kts 309°
2026-05-04 15:20 53.82681 28.14992 2774 ft 126 kts 313°
2026-05-04 15:21 53.83346 28.14039 2457 ft 124 kts 313°
2026-05-04 15:21 53.84017 28.13066 2157 ft 133 kts 312°
2026-05-04 15:21 53.85480 28.10825 1555 ft 148 kts 314°
2026-05-04 15:22 53.86249 28.09687 1265 ft 144 kts 313°
2026-05-04 15:22 53.86960 28.08606 1048 ft 131 kts 315°
2026-05-04 15:22 53.88284 28.06646 682 ft 121 kts 316°
2026-05-04 15:23 53.88806 28.05856 664 ft 78 kts 319°
2026-05-04 15:23 53.89088 28.05450 659 ft 28 kts 320°
2026-05-04 15:23 53.89138 28.05378 660 ft 9 kts 319°
2026-05-04 15:23 53.89292 28.05149 660 ft 42 kts 318°
2026-05-04 15:24 53.89659 28.04505 654 ft 33 kts 310°
2026-05-04 15:24 53.89681 28.04184 655 ft 16 kts 152°
2026-05-04 15:25 53.89543 28.04387 657 ft 32 kts 139°
2026-05-04 15:25 53.89375 28.04626 657 ft 26 kts 140°
2026-05-04 15:25 53.89314 28.04624 657 ft 9 kts 230°
2026-05-04 15:26 53.89162 28.04363 657 ft 16 kts 187°
2026-05-04 15:26 53.89094 28.04409 658 ft 15 kts 189°
2026-05-04 15:26 53.88900 28.04069 658 ft 25 kts 229°
2026-05-04 15:27 53.88876 28.03844 658 ft 20 kts 301°
2026-05-04 15:27 53.88960 28.03626 656 ft 7 kts 301°
2026-05-04 15:28 53.88964 28.03615 656 ft 0 kts 301°